| time (UTC) | temp F | wind direction | speed MPH | gust MPH | rain 1hr in | rain 24hr in | rain mn in | humidity % | barometer mb |
| 20260905230045 | 68 | 157 | 18.0 | 33.0 | 0.00 | 0.00 | 0.00 | 50 | 1010.3 |
| 20260905224550 | 69 | 159 | 19.0 | 32.0 | 0.00 | 0.00 | 0.00 | 50 | 1010.4 |
| 20260905223041 | 68 | 126 | 22.0 | 29.0 | 0.00 | 0.00 | 0.00 | 51 | 1010.3 |
| 20260905221536 | 67 | 172 | 16.0 | 26.0 | 0.00 | 0.00 | 0.00 | 52 | 1010.5 |
| 20260905220034 | 67 | 146 | 16.0 | 30.0 | 0.00 | 0.00 | 0.00 | 53 | 1010.1 |
| 20260905214532 | 67 | 141 | 21.0 | 29.0 | 0.00 | 0.00 | 0.00 | 53 | 1010.1 |
| 20260905213031 | 66 | 115 | 22.0 | 30.0 | 0.00 | 0.00 | 0.00 | 53 | 1010.1 |
| 20260905211532 | 66 | 143 | 20.0 | 30.0 | 0.00 | 0.00 | 0.00 | 54 | 1010.2 |
| 20260905210028 | 66 | 111 | 22.0 | 30.0 | 0.00 | 0.00 | 0.00 | 54 | 1010.2 |
| 20260905204535 | 65 | 130 | 15.0 | 27.0 | 0.00 | 0.00 | 0.00 | 56 | 1010.4 |
| 20260905203026 | 65 | 144 | 19.0 | 28.0 | 0.00 | 0.00 | 0.00 | 55 | 1010.2 |
| 20260905201525 | 67 | 113 | 17.0 | 29.0 | 0.00 | 0.00 | 0.00 | 54 | 1010.2 |
| 20260905200028 | 66 | 161 | 13.0 | 28.0 | 0.00 | 0.00 | 0.00 | 57 | 1010.2 |
| 20260905194523 | 66 | 110 | 15.0 | 26.0 | 0.00 | 0.00 | 0.00 | 55 | 1010.0 |
| 20260905193019 | 66 | 187 | 12.0 | 20.0 | 0.00 | 0.00 | 0.00 | 55 | 1010.3 |
| 20260905191517 | 65 | 180 | 11.0 | 26.0 | 0.00 | 0.00 | 0.00 | 57 | 1010.6 |
| 20260905190015 | 65 | 133 | 10.0 | 22.0 | 0.00 | 0.00 | 0.00 | 57 | 1010.6 |
| 20260905184537 | 64 | 147 | 14.0 | 21.0 | 0.00 | 0.00 | 0.00 | 58 | 1010.6 |
| 20260905183032 | 64 | 139 | 12.0 | 21.0 | 0.00 | 0.00 | 0.00 | 59 | 1010.5 |
| 20260905181508 | 63 | 132 | 14.0 | 26.0 | 0.00 | 0.00 | 0.00 | 61 | 1010.4 |
| 20260905180005 | 63 | 161 | 10.0 | 19.0 | 0.00 | 0.00 | 0.00 | 62 | 1010.5 |
| 20260905174501 | 61 | 163 | 8.0 | 19.0 | 0.00 | 0.00 | 0.00 | 66 | 1010.3 |
| 20260905173104 | 59 | 102 | 11.0 | 23.0 | 0.00 | 0.00 | 0.00 | 69 | 1010.3 |
| 20260905171552 | 56 | 115 | 8.0 | 21.0 | 0.00 | 0.00 | 0.00 | 77 | 1010.3 |
| 20260905170048 | 52 | 164 | 7.0 | 15.0 | 0.00 | 0.00 | 0.00 | 86 | 1010.3 |
| 20260905164546 | 47 | 209 | 7.0 | 15.0 | 0.00 | 0.00 | 0.00 | 91 | 1010.2 |
| 20260905163045 | 45 | 198 | 5.0 | 9.0 | 0.00 | 0.00 | 0.00 | 88 | 1010.2 |
| 20260905161544 | 44 | 237 | 3.0 | 7.0 | 0.00 | 0.00 | 0.00 | 89 | 1010.2 |
| 20260905160042 | 44 | 303 | 6.0 | 9.0 | 0.00 | 0.00 | 0.00 | 89 | 1010.4 |
| 20260905154559 | 44 | 293 | 4.0 | 7.0 | 0.00 | 0.00 | 0.00 | 89 | 1010.3 |
| 20260905153035 | 44 | 21 | 3.0 | 5.0 | 0.00 | 0.00 | 0.00 | 87 | 1010.2 |
| 20260905151536 | 44 | 83 | 3.0 | 7.0 | 0.00 | 0.00 | 0.00 | 87 | 1010.3 |
| 20260905150037 | 44 | 73 | 3.0 | 7.0 | 0.00 | 0.00 | 0.00 | 88 | 1010.4 |
| 20260905144535 | 44 | 271 | 3.0 | 6.0 | 0.00 | 0.00 | 0.00 | 88 | 1010.6 |
| 20260905143031 | 43 | 269 | 1.0 | 8.0 | 0.00 | 0.00 | 0.00 | 87 | 1010.7 |
| 20260905141530 | 43 | 94 | 4.0 | 10.0 | 0.00 | 0.00 | 0.00 | 86 | 1010.5 |
| 20260905140028 | 44 | 59 | 6.0 | 9.0 | 0.00 | 0.00 | 0.00 | 86 | 1010.6 |
| 20260905134522 | 44 | 62 | 3.0 | 10.0 | 0.00 | 0.00 | 0.00 | 85 | 1010.7 |
| 20260905133035 | 44 | 30 | 2.0 | 7.0 | 0.00 | 0.00 | 0.00 | 85 | 1010.6 |
| 20260905131517 | 45 | 87 | 3.0 | 9.0 | 0.00 | 0.00 | 0.00 | 84 | 1010.9 |
| 20260905130016 | 45 | 89 | 1.0 | 4.0 | 0.00 | 0.00 | 0.00 | 83 | 1011.0 |
| 20260905124512 | 46 | 34 | 1.0 | 3.0 | 0.00 | 0.00 | 0.00 | 83 | 1010.9 |
| 20260905123008 | 46 | 56 | 2.0 | 4.0 | 0.00 | 0.00 | 0.00 | 82 | 1011.1 |
| 20260905121507 | 46 | 53 | 1.0 | 5.0 | 0.00 | 0.00 | 0.00 | 81 | 1011.2 |
| 20260905120004 | 47 | 57 | 2.0 | 7.0 | 0.00 | 0.00 | 0.00 | 80 | 1011.5 |
| 20260905114601 | 48 | 71 | 3.0 | 6.0 | 0.00 | 0.00 | 0.00 | 79 | 1011.3 |
| 20260905113056 | 48 | 81 | 1.0 | 3.0 | 0.00 | 0.00 | 0.00 | 78 | 1011.4 |
| 20260905111642 | 49 | 254 | 1.0 | 6.0 | 0.00 | 0.00 | 0.00 | 77 | 1011.6 |
| 20260905110052 | 49 | 271 | 4.0 | 10.0 | 0.00 | 0.00 | 0.00 | 76 | 1011.6 |
| 20260905104559 | 49 | 260 | 3.0 | 8.0 | 0.00 | 0.00 | 0.00 | 76 | 1011.9 |
| 20260905103050 | 49 | 213 | 6.0 | 10.0 | 0.00 | 0.00 | 0.00 | 76 | 1011.9 |
| 20260905101553 | 50 | 269 | 6.0 | 10.0 | 0.00 | 0.00 | 0.00 | 75 | 1012.1 |
| 20260905100049 | 50 | 240 | 5.0 | 10.0 | 0.00 | 0.00 | 0.00 | 74 | 1012.2 |
| 20260905094542 | 50 | 248 | 6.0 | 12.0 | 0.00 | 0.00 | 0.00 | 74 | 1012.4 |
| 20260905093041 | 50 | 269 | 7.0 | 14.0 | 0.00 | 0.00 | 0.00 | 74 | 1012.3 |
| 20260905091539 | 50 | 258 | 8.0 | 13.0 | 0.00 | 0.00 | 0.00 | 76 | 1012.3 |
| 20260905090040 | 50 | 257 | 6.0 | 11.0 | 0.00 | 0.00 | 0.00 | 76 | 1012.3 |
| 20260905084538 | 50 | 253 | 6.0 | 9.0 | 0.00 | 0.00 | 0.00 | 75 | 1012.3 |
| 20260905083033 | 51 | 269 | 4.0 | 8.0 | 0.00 | 0.00 | 0.00 | 74 | 1012.3 |
| 20260905081528 | 52 | 252 | 4.0 | 9.0 | 0.00 | 0.00 | 0.00 | 72 | 1012.3 |
| 20260905080033 | 53 | 269 | 4.0 | 9.0 | 0.00 | 0.00 | 0.00 | 70 | 1012.4 |
| 20260905074522 | 54 | 250 | 3.0 | 8.0 | 0.00 | 0.00 | 0.00 | 69 | 1012.4 |
| 20260905073021 | 54 | 214 | 3.0 | 7.0 | 0.00 | 0.00 | 0.00 | 68 | 1012.5 |
| 20260905071523 | 55 | 267 | 3.0 | 8.0 | 0.00 | 0.00 | 0.00 | 67 | 1012.7 |
| 20260905070019 | 56 | 259 | 3.0 | 7.0 | 0.00 | 0.00 | 0.00 | 64 | 1012.7 |
| 20260905064517 | 57 | 207 | 1.0 | 6.0 | 0.00 | 0.00 | 0.00 | 61 | 1012.8 |
| 20260905063017 | 57 | 245 | 2.0 | 7.0 | 0.00 | 0.00 | 0.00 | 60 | 1012.8 |
| 20260905061516 | 58 | 266 | 4.0 | 7.0 | 0.00 | 0.00 | 0.00 | 59 | 1012.8 |
| 20260905060024 | 60 | 263 | 3.0 | 6.0 | 0.00 | 0.00 | 0.00 | 57 | 1012.7 |
| 20260905054515 | 60 | 230 | 1.0 | 4.0 | 0.00 | 0.00 | 0.00 | 54 | 1012.7 |
| 20260905053014 | 61 | 271 | 1.0 | 3.0 | 0.00 | 0.00 | 0.00 | 53 | 1012.8 |
| 20260905051514 | 62 | 271 | 2.0 | 3.0 | 0.00 | 0.00 | 0.00 | 52 | 1012.7 |
| 20260905050016 | 63 | 271 | 1.0 | 3.0 | 0.00 | 0.00 | 0.00 | 50 | 1012.8 |
| 20260905044513 | 64 | 271 | 1.0 | 2.0 | 0.00 | 0.00 | 0.00 | 47 | 1012.7 |
| 20260905043011 | 65 | 271 | 0.0 | 2.0 | 0.00 | 0.00 | 0.00 | 46 | 1012.8 |
| 20260905041511 | 65 | 271 | 1.0 | 3.0 | 0.00 | 0.00 | 0.00 | 46 | 1012.8 |
| 20260905040010 | 66 | 271 | 1.0 | 3.0 | 0.00 | 0.00 | 0.00 | 46 | 1013.0 |
| 20260905034509 | 66 | 271 | 1.0 | 5.0 | 0.00 | 0.00 | 0.00 | 46 | 1013.0 |
| 20260905033018 | 67 | 271 | 1.0 | 4.0 | 0.00 | 0.00 | 0.00 | 45 | 1013.0 |
| 20260905031509 | 67 | 190 | 0.0 | 3.0 | 0.00 | 0.00 | 0.00 | 44 | 1013.1 |
| 20260905030007 | 67 | 270 | 2.0 | 6.0 | 0.00 | 0.00 | 0.00 | 45 | 1013.1 |
| 20260905024507 | 67 | 157 | 1.0 | 5.0 | 0.00 | 0.00 | 0.00 | 43 | 1013.1 |
| 20260905023005 | 67 | 200 | 1.0 | 5.0 | 0.00 | 0.00 | 0.00 | 43 | 1013.2 |
| 20260905021506 | 67 | 173 | 4.0 | 6.0 | 0.00 | 0.00 | 0.00 | 43 | 1013.1 |
| 20260905020005 | 68 | 188 | 3.0 | 7.0 | 0.00 | 0.00 | 0.00 | 43 | 1013.4 |
| 20260905014502 | 68 | 163 | 1.0 | 6.0 | 0.00 | 0.00 | 0.00 | 42 | 1013.4 |
| 20260905013100 | 68 | 155 | 4.0 | 8.0 | 0.00 | 0.00 | 0.00 | 42 | 1013.5 |
| 20260905011601 | 68 | 184 | 4.0 | 8.0 | 0.00 | 0.00 | 0.00 | 43 | 1013.8 |
| 20260905010108 | 69 | 164 | 6.0 | 8.0 | 0.00 | 0.00 | 0.00 | 42 | 1014.0 |
| 20260905004558 | 69 | 98 | 4.0 | 7.0 | 0.00 | 0.00 | 0.00 | 42 | 1014.1 |
| 20260905003052 | 69 | 127 | 2.0 | 5.0 | 0.00 | 0.00 | 0.00 | 44 | 1014.3 |
| 20260905001556 | 69 | 148 | 3.0 | 9.0 | 0.00 | 0.00 | 0.00 | 44 | 1014.5 |
| 20260905000058 | 70 | 88 | 5.0 | 8.0 | 0.00 | 0.00 | 0.00 | 42 | 1014.6 |
| 20260904234547 | 70 | 116 | 2.0 | 5.0 | 0.00 | 0.00 | 0.00 | 39 | 1014.7 |
| 20260904233048 | 69 | 96 | 2.0 | 5.0 | 0.00 | 0.00 | 0.00 | 41 | 1014.9 |
| 20260904231543 | 69 | 65 | 2.0 | 6.0 | 0.00 | 0.00 | 0.00 | 42 | 1015.0 |